COSMOS 2557 (706K)

Last updated on Thu Apr 09 2026 00:02:36 GMT+0000 (Coordinated Universal Time)

1 52984U 22075A 26098.18923715 -.00000032 00000+0 00000+0 0 9999 2 52984 64.3386 316.9523 0010596 283.5355 76.3908 2.13102094 29221
UTC large
Height (km)
Speed (km/s)
/
Latitude / Longitude
Inclination (degrees)
Orbital Period (minutes)
Azimuth
Elevation
Range (km)
Doppler Factor

Next 0 passes for location: London (51.5072 / 0.1276)

Sorry there are no passes over London.
COSMOS 2557 (706K)